Hourly Data Report for September 25, 2020

OTTAWA INTL A
ONTARIO
Current Station Operator: NAVCAN

45°19'00.000" N
75°40'00.000" W
114.90 m
6106001
71628
YOW

Download Data

Hourly Data (September 2020)
Hourly Data Report for September 25, 2020
TIME Temp Definition
°C
Dew Point Definition
°C
Rel Hum Definition
%
Wind Dir Definition
10's deg

Wind Spd Definition
km/h
Visibility Definition
km
Stn Press Definition
kPa
Hmdx Definition


Wind Chill Definition


Weather Definition


00:00 11.3 7.8 79 5 11 24.1 100.33     LegendNANA
01:00 11.4 7.0 74 6 11 24.1 100.36     Mostly Cloudy
02:00 10.9 7.2 78 4 14 24.1 100.37     LegendNANA
03:00 11.1 6.6 74 3 14 24.1 100.40     LegendNANA
04:00 10.7 6.4 75 5 13 24.1 100.42     Mostly Cloudy
05:00 10.6 6.1 73 5 16 24.1 100.44     LegendNANA
06:00 9.5 5.9 78 6 13 24.1 100.50     LegendNANA
07:00 10.2 6.1 76 5 17 24.1 100.54     Mostly Cloudy
08:00 10.9 5.8 71 6 17 24.1 100.60     LegendNANA
09:00 11.9 6.2 68 7 15 24.1 100.67     LegendNANA
10:00 12.9 6.1 63 8 16 24.1 100.66     Mostly Cloudy
11:00 15.1 7.3 60 11 13 24.1 100.60     LegendNANA
12:00 16.6 7.2 53 9 14 24.1 100.54     LegendNANA
13:00 16.4 7.4 55 6 10 24.1 100.50     Mostly Cloudy
14:00 16.9 8.3 57 8 13 24.1 100.44     LegendNANA
15:00 18.0 8.8 55 8 13 24.1 100.39     LegendNANA
16:00 17.9 9.3 57 10 10 24.1 100.37     Mainly Clear
17:00 16.8 9.3 61 9 10 24.1 100.35     LegendNANA
18:00 13.8 9.1 73 6 11 24.1 100.35     LegendNANA
19:00 13.6 8.6 72 7 11 24.1 100.37     Mainly Clear
20:00 12.4 8.8 78 8 11 24.1 100.37     LegendNANA
21:00 11.9 8.7 81 7 12 24.1 100.38     LegendNANA
22:00 10.2 8.0 86 6 9 24.1 100.36     Clear
23:00 9.8 7.6 86 9 6 24.1 100.33     LegendNANA

Notes on Data Quality.

Legend

  • E = Estimated
  • M = Missing
  • NA = Not Available*
  • [empty] = Indicates an unobserved value
Date modified: